TimeGMT,TemperatureF,Dew PointF,Humidity,Sea Level PressureIn,VisibilityMPH,Wind Direction,Wind SpeedMPH,Gust SpeedMPH,PrecipitationIn,Events,Conditions,WindDirDegrees,DateUTC
12:50 AM,48.2,41.0,76,28.97,6.2,SW,21.9,-,N/A,,Mostly Cloudy,230,2012-10-31 00:50:00
1:50 AM,48.2,41.0,76,28.91,6.2,SW,18.4,-,N/A,,Mostly Cloudy,220,2012-10-31 01:50:00
2:50 AM,47,41,73,28.91,12,SW,29.9,,,Rain,Light Rain,230,2012-10-31 02:50:00
2:50 AM,48.2,41.0,76,28.88,6.2,SW,29.9,-,N/A,,Overcast,230,2012-10-31 02:50:00
3:50 AM,48.2,39.2,71,28.88,6.2,SW,24.2,35.7,N/A,Rain,Light Rain,230,2012-10-31 03:50:00
4:50 AM,46.4,39.2,76,28.85,6.2,SW,24.2,-,N/A,,Mostly Cloudy,220,2012-10-31 04:50:00
5:50 AM,46,41,77,28.86,17,WSW,21.9,,,Rain,Light Rain,240,2012-10-31 05:50:00
5:50 AM,46.4,41.0,81,28.85,6.2,WSW,21.9,34.5,N/A,Rain,Light Rain,240,2012-10-31 05:50:00
6:50 AM,42.8,39.2,87,28.85,6.2,WSW,13.8,-,N/A,,Mostly Cloudy,240,2012-10-31 06:50:00
7:50 AM,42.8,39.2,87,28.85,6.2,SW,15.0,-,N/A,,Mostly Cloudy,230,2012-10-31 07:50:00
8:50 AM,44,39,78,28.86,16,SW,8.1,,,Rain,Light Rain,220,2012-10-31 08:50:00
8:50 AM,44.6,39.2,81,28.85,6.2,SW,8.1,-,N/A,Rain,Light Rain,220,2012-10-31 08:50:00
9:50 AM,44.6,41.0,87,28.85,6.2,SSW,8.1,-,N/A,Rain,Light Rain,200,2012-10-31 09:50:00
10:50 AM,44.6,42.8,93,28.82,6.2,SSW,5.8,-,N/A,Rain,Light Rain,210,2012-10-31 10:50:00
11:50 AM,45,43,91,28.81,6,South,5.8,,,Rain,Light Rain,190,2012-10-31 11:50:00
11:50 AM,44.6,42.8,93,28.80,6.2,South,5.8,-,N/A,Rain,Light Rain,190,2012-10-31 11:50:00
12:50 PM,44.6,41.0,87,28.77,5.6,West,8.1,-,N/A,Rain,Rain,270,2012-10-31 12:50:00
1:50 PM,42.8,41.0,93,28.74,6.2,WNW,5.8,-,N/A,Rain,Rain,290,2012-10-31 13:50:00
2:23 PM,42.8,41.0,93,28.74,6.2,WSW,6.9,-,N/A,Rain,Rain,250,2012-10-31 14:23:00
2:50 PM,42,39,83,28.76,9,West,8.1,,,Rain,Rain,280,2012-10-31 14:50:00
2:50 PM,42.8,39.2,87,28.74,6.2,West,8.1,-,N/A,Rain,Rain,280,2012-10-31 14:50:00
3:50 PM,41.0,39.2,93,28.74,6.2,West,9.2,-,N/A,,Mostly Cloudy,260,2012-10-31 15:50:00
4:50 PM,41.0,39.2,93,28.77,6.2,WSW,10.4,-,N/A,Rain,Light Rain,250,2012-10-31 16:50:00
5:50 PM,40,38,90,28.78,19,WSW,10.4,,,Rain,Light Rain,250,2012-10-31 17:50:00
5:50 PM,39.2,37.4,93,28.77,6.2,WSW,10.4,-,N/A,,Mostly Cloudy,250,2012-10-31 17:50:00
6:50 PM,39.2,37.4,93,28.77,6.2,West,6.9,-,N/A,,Mostly Cloudy,260,2012-10-31 18:50:00
7:50 PM,37.4,37.4,100,28.80,6.2,West,6.9,-,N/A,,Mostly Cloudy,260,2012-10-31 19:50:00
8:50 PM,38,37,95,28.80,7,WNW,1.2,,,,Scattered Clouds,290,2012-10-31 20:50:00
8:50 PM,37.4,37.4,100,28.80,6.2,WNW,1.2,-,N/A,,Mostly Cloudy,290,2012-10-31 20:50:00
9:50 PM,35.6,35.6,100,28.80,6.2,WSW,6.9,-,N/A,,Mostly Cloudy,240,2012-10-31 21:50:00
10:50 PM,37.4,35.6,93,28.80,6.2,West,4.6,-,N/A,,Mostly Cloudy,270,2012-10-31 22:50:00
11:50 PM,37,36,94,28.79,6,West,5.8,,,,Mist,270,2012-10-31 23:50:00
11:50 PM,37.4,35.6,93,28.77,6.2,West,5.8,-,N/A,,Mostly Cloudy,270,2012-10-31 23:50:00